| time (UTC) | temp C | wind direction | speed KPH | gust KPH | rain 1hr cm | rain 24hr cm | rain mn cm | humidity % | barometer mb |
| 20260905021519 | 18 | 273 | 0.0 | 1.6 | 0.00 | 0.00 | 0.00 | 79 | 1006.8 |
| 20260905020053 | 18 | 273 | 0.0 | 0.0 | 0.00 | 0.00 | 0.00 | 78 | 1006.9 |
| 20260905014530 | 18 | 273 | 0.0 | 0.0 | 0.00 | 0.00 | 0.00 | 76 | 1006.8 |
| 20260905013016 | 19 | 273 | 0.0 | 0.0 | 0.00 | 0.00 | 0.00 | 75 | 1006.9 |
| 20260905011554 | 20 | 273 | 0.0 | 0.0 | 0.00 | 0.00 | 0.00 | 74 | 1006.9 |
| 20260905010036 | 20 | 273 | 0.0 | 0.0 | 0.00 | 0.00 | 0.00 | 71 | 1006.9 |
| 20260905004504 | 21 | 273 | 0.0 | 0.0 | 0.00 | 0.00 | 0.00 | 69 | 1006.8 |
| 20260905003042 | 21 | 273 | 0.0 | 0.0 | 0.00 | 0.00 | 0.00 | 67 | 1006.9 |
| 20260905001525 | 21 | 273 | 0.0 | 1.6 | 0.00 | 0.00 | 0.00 | 64 | 1006.9 |
| 20260905000010 | 22 | 271 | 0.0 | 1.6 | 0.00 | 0.00 | 0.00 | 63 | 1006.8 |
| 20260904234548 | 22 | 331 | 0.0 | 6.4 | 0.00 | 0.00 | 0.00 | 62 | 1006.5 |
| 20260904233039 | 22 | 314 | 0.0 | 0.0 | 0.00 | 0.00 | 0.00 | 61 | 1006.4 |
| 20260904231517 | 22 | 291 | 0.0 | 3.2 | 0.00 | 0.00 | 0.00 | 60 | 1006.3 |
| 20260904230049 | 22 | 331 | 0.0 | 3.2 | 0.00 | 0.00 | 0.00 | 60 | 1006.4 |
| 20260904224525 | 23 | 294 | 0.0 | 6.4 | 0.00 | 0.00 | 0.00 | 60 | 1006.3 |
| 20260904223009 | 23 | 342 | 0.0 | 4.8 | 0.00 | 0.00 | 0.00 | 60 | 1006.2 |
| 20260904221553 | 23 | 302 | 3.2 | 12.9 | 0.00 | 0.00 | 0.00 | 60 | 1006.3 |
| 20260904220024 | 23 | 261 | 0.0 | 12.9 | 0.00 | 0.00 | 0.00 | 60 | 1006.3 |
| 20260904214601 | 23 | 298 | 1.6 | 9.7 | 0.00 | 0.00 | 0.00 | 61 | 1006.1 |
| 20260904213035 | 23 | 192 | 0.0 | 0.0 | 0.00 | 0.00 | 0.00 | 78 | 1006.1 |
| 20260904211509 | 22 | 192 | 0.0 | 0.0 | 0.00 | 0.00 | 0.00 | 82 | 1006.1 |
| 20260904210053 | 21 | 192 | 0.0 | 0.0 | 0.00 | 0.00 | 0.00 | 84 | 1006.2 |
| 20260904204532 | 22 | 199 | 0.0 | 0.0 | 0.00 | 0.00 | 0.00 | 83 | 1006.2 |
| 20260904203003 | 22 | 161 | 0.0 | 0.0 | 0.00 | 0.00 | 0.00 | 84 | 1006.1 |
| 20260904201542 | 22 | 192 | 0.0 | 0.0 | 0.00 | 0.00 | 0.00 | 81 | 1006.1 |
| 20260904200013 | 23 | 169 | 0.0 | 0.0 | 0.00 | 0.00 | 0.00 | 78 | 1006.0 |
| 20260904194551 | 23 | 233 | 0.0 | 0.0 | 0.00 | 0.00 | 0.00 | 76 | 1006.0 |
| 20260904193038 | 23 | 229 | 0.0 | 0.0 | 0.00 | 0.00 | 0.00 | 76 | 1006.0 |
| 20260904191509 | 23 | 219 | 0.0 | 0.0 | 0.00 | 0.00 | 0.00 | 78 | 1006.2 |
| 20260904190051 | 22 | 188 | 0.0 | 0.0 | 0.00 | 0.00 | 0.00 | 80 | 1006.7 |
| 20260904184530 | 21 | 165 | 0.0 | 0.0 | 0.00 | 0.00 | 0.00 | 82 | 1006.8 |
| 20260904183102 | 20 | 225 | 3.2 | 9.7 | 0.00 | 0.00 | 0.00 | 84 | 1006.6 |
| 20260904181536 | 20 | 213 | 0.0 | 0.0 | 0.00 | 0.00 | 0.00 | 82 | 1006.7 |
| 20260904180022 | 22 | 190 | 1.6 | 8.0 | 0.00 | 0.00 | 0.00 | 79 | 1006.7 |
| 20260904174513 | 22 | 221 | 0.0 | 0.0 | 0.00 | 0.00 | 0.00 | 76 | 1006.6 |
| 20260904173058 | 23 | 156 | 0.0 | 0.0 | 0.00 | 0.00 | 0.00 | 74 | 1006.6 |
| 20260904171518 | 23 | 231 | 0.0 | 0.0 | 0.00 | 0.00 | 0.00 | 76 | 1006.8 |
| 20260904170053 | 23 | 139 | 0.0 | 9.7 | 0.00 | 0.00 | 0.00 | 77 | 1006.9 |
| 20260904164527 | 22 | 196 | 0.0 | 4.8 | 0.00 | 0.00 | 0.00 | 79 | 1007.0 |
| 20260904163005 | 22 | 163 | 0.0 | 8.0 | 0.00 | 0.00 | 0.00 | 79 | 1007.1 |
| 20260904161559 | 23 | 229 | 0.0 | 0.0 | 0.00 | 0.00 | 0.00 | 76 | 1007.4 |
| 20260904160044 | 23 | 209 | 0.0 | 8.0 | 0.00 | 0.00 | 0.00 | 78 | 1007.3 |
| 20260904154512 | 23 | 230 | 0.0 | 0.0 | 0.00 | 0.00 | 0.00 | 77 | 1007.5 |
| 20260904153049 | 23 | 202 | 0.0 | 0.0 | 0.00 | 0.00 | 0.00 | 77 | 1007.7 |
| 20260904151524 | 23 | 96 | 0.0 | 0.0 | 0.00 | 0.00 | 0.00 | 77 | 1007.7 |
| 20260904150009 | 23 | 237 | 1.6 | 6.4 | 0.00 | 0.05 | 0.00 | 76 | 1007.8 |
| 20260904144538 | 23 | 251 | 0.0 | 3.2 | 0.00 | 0.05 | 0.00 | 77 | 1007.8 |
| 20260904143011 | 23 | 24 | 0.0 | 0.0 | 0.00 | 0.05 | 0.00 | 79 | 1007.8 |
| 20260904141554 | 21 | 44 | 0.0 | 0.0 | 0.00 | 0.05 | 0.00 | 83 | 1008.0 |
| 20260904140020 | 20 | 325 | 0.0 | 1.6 | 0.00 | 0.08 | 0.00 | 86 | 1008.0 |
| 20260904134612 | 20 | 28 | 0.0 | 1.6 | 0.00 | 0.08 | 0.00 | 89 | 1008.1 |
| 20260904133040 | 19 | 209 | 0.0 | 0.0 | 0.00 | 0.08 | 0.00 | 90 | 1008.2 |
| 20260904131512 | 18 | 101 | 0.0 | 0.0 | 0.00 | 0.08 | 0.00 | 92 | 1008.1 |
| 20260904130048 | 18 | 321 | 0.0 | 0.0 | 0.00 | 0.13 | 0.00 | 94 | 1008.0 |
| 20260904124520 | 17 | 342 | 0.0 | 0.0 | 0.00 | 0.13 | 0.00 | 94 | 1008.2 |
| 20260904123006 | 17 | 241 | 0.0 | 4.8 | 0.00 | 0.13 | 0.00 | 94 | 1008.2 |
| 20260904121550 | 17 | 263 | 0.0 | 0.0 | 0.00 | 0.13 | 0.00 | 94 | 1008.2 |
| 20260904120022 | 17 | 26 | 0.0 | 0.0 | 0.00 | 0.13 | 0.00 | 95 | 1008.1 |
| 20260904114601 | 17 | 346 | 0.0 | 0.0 | 0.00 | 0.13 | 0.00 | 95 | 1008.1 |
| 20260904113030 | 17 | 315 | 0.0 | 0.0 | 0.00 | 0.13 | 0.00 | 95 | 1008.1 |
| 20260904111516 | 17 | 330 | 0.0 | 0.0 | 0.00 | 0.13 | 0.00 | 95 | 1008.1 |
| 20260904110054 | 17 | 256 | 0.0 | 0.0 | 0.00 | 0.15 | 0.00 | 95 | 1008.0 |
| 20260904104531 | 17 | 255 | 0.0 | 0.0 | 0.00 | 0.15 | 0.00 | 95 | 1008.0 |
| 20260904103007 | 17 | 255 | 0.0 | 0.0 | 0.00 | 0.15 | 0.00 | 95 | 1008.0 |
| 20260904101544 | 17 | 241 | 0.0 | 0.0 | 0.00 | 0.15 | 0.00 | 95 | 1007.8 |
| 20260904100022 | 17 | 279 | 0.0 | 0.0 | 0.00 | 0.38 | 0.00 | 95 | 1007.8 |
| 20260904094601 | 17 | 266 | 0.0 | 0.0 | 0.00 | 0.38 | 0.00 | 95 | 1007.8 |
| 20260904093031 | 17 | 266 | 0.0 | 0.0 | 0.00 | 0.38 | 0.00 | 95 | 1007.7 |
| 20260904091510 | 17 | 275 | 0.0 | 0.0 | 0.00 | 0.38 | 0.00 | 95 | 1007.6 |
| 20260904090054 | 17 | 261 | 0.0 | 0.0 | 0.00 | 0.38 | 0.00 | 95 | 1007.8 |
| 20260904084529 | 17 | 261 | 0.0 | 0.0 | 0.00 | 0.38 | 0.00 | 94 | 1007.7 |
| 20260904083004 | 17 | 261 | 0.0 | 0.0 | 0.00 | 0.38 | 0.00 | 94 | 1007.8 |
| 20260904081540 | 17 | 261 | 0.0 | 0.0 | 0.00 | 0.38 | 0.00 | 94 | 1007.8 |
| 20260904080018 | 17 | 261 | 0.0 | 0.0 | 0.00 | 0.38 | 0.00 | 94 | 1007.8 |
| 20260904074555 | 17 | 261 | 0.0 | 0.0 | 0.00 | 0.38 | 0.00 | 94 | 1008.0 |
| 20260904073031 | 17 | 261 | 0.0 | 0.0 | 0.00 | 0.38 | 0.00 | 94 | 1008.1 |
| 20260904071517 | 17 | 261 | 0.0 | 0.0 | 0.00 | 0.38 | 0.00 | 94 | 1008.1 |
| 20260904070108 | 17 | 261 | 0.0 | 0.0 | 0.00 | 0.38 | 0.00 | 94 | 1008.2 |
| 20260904064517 | 17 | 261 | 0.0 | 0.0 | 0.00 | 0.38 | 0.00 | 94 | 1008.4 |
| 20260904063101 | 17 | 261 | 0.0 | 0.0 | 0.00 | 0.38 | 0.00 | 94 | 1008.6 |
| 20260904061534 | 17 | 261 | 0.0 | 0.0 | 0.00 | 0.38 | 0.00 | 94 | 1008.7 |
| 20260904060005 | 17 | 261 | 0.0 | 0.0 | 0.00 | 0.38 | 0.00 | 94 | 1009.0 |
| 20260904054547 | 17 | 261 | 0.0 | 0.0 | 0.00 | 0.38 | 0.00 | 94 | 1009.1 |
| 20260904053041 | 17 | 261 | 0.0 | 0.0 | 0.00 | 0.38 | 0.00 | 94 | 1009.2 |
| 20260904051601 | 17 | 261 | 0.0 | 0.0 | 0.00 | 0.38 | 0.00 | 93 | 1009.3 |
| 20260904050040 | 17 | 261 | 0.0 | 0.0 | 0.00 | 0.38 | 0.00 | 94 | 1009.5 |
| 20260904044512 | 17 | 261 | 0.0 | 0.0 | 0.00 | 0.38 | 0.00 | 94 | 1009.6 |
| 20260904043057 | 17 | 260 | 0.0 | 0.0 | 0.00 | 0.38 | 0.00 | 93 | 1009.5 |
| 20260904041521 | 17 | 325 | 0.0 | 0.0 | 0.00 | 0.38 | 0.00 | 93 | 1009.7 |
| 20260904040007 | 17 | 259 | 0.0 | 0.0 | 0.00 | 0.38 | 0.38 | 93 | 1009.8 |
| 20260904034542 | 17 | 259 | 0.0 | 0.0 | 0.00 | 0.38 | 0.38 | 93 | 1009.9 |
| 20260904033016 | 17 | 259 | 0.0 | 0.0 | 0.00 | 0.38 | 0.38 | 93 | 1009.8 |
| 20260904031557 | 17 | 277 | 0.0 | 0.0 | 0.00 | 0.38 | 0.38 | 92 | 1009.8 |
| 20260904030027 | 17 | 277 | 0.0 | 0.0 | 0.00 | 0.38 | 0.38 | 92 | 1010.1 |
| 20260904024501 | 17 | 277 | 0.0 | 0.0 | 0.00 | 0.38 | 0.38 | 92 | 1010.4 |
| 20260904023033 | 17 | 277 | 0.0 | 0.0 | 0.00 | 0.38 | 0.38 | 92 | 1010.5 |